Theta_e
324 326 331 334 332 329 334 335 331 335 337 330 334 339 338 337 332 330 337 331 328 324 327 332 331 330 330 330 331 331 330 329 328 327 325 325 325 327 326 324 325 325 325 323 321 322 324 325 325
327 331 334 332 335 337 337 333 333 333 330 329 330 331 334 341 340 338 335 330 327 325 330 333 334 333 332 332 331 331 331 331 331 331 330 329 327 326 325 326 326 326 326 325 325 324 324 326 324
331 335 333 334 334 338 337 334 332 331 329 332 331 328 331 336 337 338 336 329 325 327 331 333 337 336 332 332 332 332 332 332 332 332 332 333 334 333 330 327 327 328 329 332 332 330 327 326 326
336 330 328 334 337 338 336 332 332 331 329 328 329 330 331 335 336 338 337 326 328 332 333 334 339 338 335 333 333 334 333 333 334 335 335 334 333 334 334 334 333 332 334 337 339 337 331 328 328
330 327 333 337 339 337 335 332 330 333 330 328 329 334 334 334 338 333 331 329 330 333 333 334 335 336 339 337 336 333 333 333 335 335 336 335 334 334 333 332 333 335 337 339 339 339 333 332 331
329 326 334 337 339 336 334 332 332 331 328 330 332 335 336 335 338 338 332 330 337 340 341 342 342 341 334 334 332 331 330 335 336 337 337 336 335 333 333 332 333 333 334 335 335 334 332 331 332
329 330 334 336 339 337 336 332 332 331 335 335 333 338 336 334 336 342 340 341 338 342 343 343 344 343 342 339 335 337 332 335 336 338 336 336 335 334 335 333 333 332 332 332 333 333 332 331 328
322 326 334 336 337 336 335 333 333 338 341 338 337 339 338 333 336 339 342 338 339 342 342 341 341 343 343 343 343 343 339 337 338 338 337 336 336 336 335 334 332 332 332 332 334 334 332 332 331
320 329 334 334 336 335 333 338 340 337 339 338 338 337 334 335 332 335 338 340 336 335 335 338 340 340 340 339 339 340 343 339 339 338 336 332 333 333 332 332 332 332 332 331 332 335 337 332 332
318 324 332 332 333 337 342 340 338 340 340 340 339 336 336 338 339 339 339 335 328 328 329 334 337 337 337 336 337 338 339 338 335 332 330 331 330 329 327 326 327 328 330 331 331 332 337 336 335
325 326 332 334 334 338 342 339 340 341 343 342 341 339 338 339 339 336 330 326 325 324 325 326 334 335 334 334 333 334 333 330 331 331 328 325 322 320 319 319 322 325 326 329 330 330 329 332 331
333 334 334 338 338 341 341 339 336 341 341 339 340 339 338 338 338 333 327 322 323 321 321 321 323 328 333 333 332 331 329 326 323 321 317 315 313 313 312 312 314 317 323 324 324 328 330 329 330
334 339 341 340 337 336 337 336 336 340 339 338 337 339 337 340 336 329 322 320 319 317 315 315 318 323 329 333 329 326 321 319 316 314 313 313 313 313 312 312 313 316 318 321 322 323 326 327 327
332 338 340 341 340 338 336 335 335 338 339 339 339 340 338 341 335 327 321 319 317 316 317 315 317 325 329 328 324 319 316 315 315 314 314 313 313 313 313 313 313 314 314 315 317 317 319 321 321
334 341 336 335 340 341 338 339 335 339 340 339 342 341 341 338 333 327 321 320 318 318 316 313 314 325 325 319 318 317 316 316 316 314 314 314 313 313 313 313 313 313 313 312 313 314 314 315 317
329 327 333 336 335 338 335 339 339 333 335 337 343 341 340 337 332 325 321 320 319 318 315 313 313 318 320 319 318 317 318 318 316 315 315 314 313 313 313 313 313 313 313 312 312 312 313 313 313
326 330 336 339 337 340 336 340 338 334 333 337 343 343 340 334 331 327 322 321 320 318 315 312 314 317 315 316 316 316 317 318 316 315 315 314 314 314 314 314 314 314 314 314 314 313 313 313 314
328 334 337 340 339 339 342 343 339 338 335 338 341 342 339 335 332 327 324 322 321 318 315 313 312 315 316 315 316 316 316 315 315 315 314 314 314 314 314 313 313 312 312 312 313 314 314 313 314
327 334 340 339 337 339 342 343 345 341 340 338 337 339 337 336 333 327 325 324 322 319 315 314 312 311 313 316 314 314 314 315 315 314 314 314 314 313 313 312 312 312 312 313 313 314 314 315 314
336 338 339 337 335 337 339 340 338 337 338 334 334 339 337 335 332 328 325 325 323 320 316 315 312 311 314 314 314 313 313 314 314 314 314 315 313 312 312 312 311 312 312 313 313 313 313 313 314
336 336 338 339 339 338 338 338 339 336 336 337 335 335 336 334 333 329 326 324 323 320 317 315 313 311 312 312 313 314 314 314 314 314 315 314 312 312 311 311 312 312 312 312 313 312 313 312 313
334 334 336 337 332 337 336 335 336 336 334 334 334 332 334 334 331 329 326 324 322 319 318 316 313 311 312 313 314 314 314 314 314 315 313 312 312 311 310 311 312 312 312 312 312 312 312 312 311
334 333 333 333 335 335 338 334 330 336 336 334 331 331 331 331 330 328 325 325 323 319 318 316 313 312 312 314 314 314 314 315 314 314 311 312 312 311 311 310 311 311 310 310 311 310 311 311 311
331 330 328 329 327 333 335 334 335 336 335 334 333 332 332 328 328 327 325 325 324 318 318 316 314 313 312 314 314 314 315 314 314 314 313 313 312 311 310 309 310 310 310 310 309 309 311 311 312
327 327 332 334 333 333 336 338 334 332 331 334 336 333 331 326 323 321 321 324 323 319 318 316 315 314 313 314 315 315 315 315 314 314 314 313 312 311 310 309 309 310 308 309 308 309 310 310 309
330 325 327 333 331 331 336 340 338 332 330 333 332 329 324 322 321 319 320 323 323 320 318 316 315 314 313 314 314 315 316 316 315 314 313 311 312 311 309 309 310 309 308 308 308 308 308 308 309
329 328 323 332 333 338 337 337 333 333 334 327 324 323 323 322 320 319 320 322 323 320 318 316 315 314 313 313 314 315 315 316 316 314 313 311 311 309 309 309 309 309 308 308 308 307 308 307 308
326 322 325 325 335 340 338 340 340 336 335 327 324 323 321 321 320 318 319 321 323 320 318 316 316 315 313 313 314 315 314 316 314 313 313 312 311 310 310 308 309 308 307 307 307 307 307 307 306
325 326 322 323 329 335 338 335 334 334 333 330 323 321 321 322 321 318 319 320 321 320 317 316 315 315 313 313 313 314 313 315 315 314 313 313 313 312 310 308 308 307 307 307 307 307 307 307 306
325 325 322 326 330 333 332 335 332 332 331 330 324 321 320 321 319 318 318 317 318 318 316 316 315 315 315 313 313 314 313 314 315 315 314 313 313 312 309 309 307 307 307 307 307 306 307 308 308
Wind_Speed
14 15 12 2 5 6 3 5 2 1 2 3 3 4 5 4 3 3 2 8 5 12 12 7 5 3 1 2 2 3 3 3 3 3 3 3 3 3 3 3 3 3 3 3 3 2 2 4 5
16 13 3 2 6 5 5 7 4 3 5 6 8 5 7 4 3 2 5 5 7 12 9 6 3 1 1 2 3 3 4 6 6 7 8 8 8 8 7 7 7 7 7 7 7 7 5 3 5
16 3 2 4 4 3 2 4 3 2 0 4 4 6 5 6 7 2 4 7 12 11 8 5 2 2 1 2 3 4 5 7 9 10 12 12 12 12 13 12 11 11 11 11 11 11 10 9 7
8 1 4 5 6 2 1 3 2 2 6 7 3 7 5 5 11 10 7 9 10 6 4 1 2 3 4 3 5 6 7 10 11 12 14 14 14 14 15 15 16 15 15 15 14 14 14 13 10
3 3 5 4 3 1 2 2 3 3 4 6 4 3 4 9 10 10 9 9 6 5 3 4 5 6 6 6 6 8 9 11 13 15 16 16 16 18 17 17 16 15 16 16 17 18 18 18 15
4 4 5 2 3 5 4 5 3 5 5 4 6 4 3 9 13 11 9 10 12 11 10 9 8 8 7 7 8 9 8 10 13 16 18 18 17 16 16 15 15 16 16 16 17 18 19 18 19
5 4 7 5 1 5 3 3 4 3 8 8 3 4 2 13 13 10 13 17 17 17 17 18 17 9 5 6 8 9 9 11 14 16 19 17 15 15 15 14 14 15 16 18 20 21 22 21 19
4 4 4 3 4 4 4 4 2 8 6 5 6 4 4 5 12 17 15 14 14 19 19 20 20 20 12 8 8 11 11 12 13 16 17 16 14 14 17 18 17 16 18 19 20 21 21 21 20
3 4 3 5 3 2 6 4 4 5 9 9 8 5 5 13 12 20 20 19 22 23 23 22 20 17 16 14 12 10 9 9 12 14 15 14 14 15 15 15 16 16 16 16 17 18 21 20 20
4 4 3 1 5 13 17 12 6 9 9 7 9 14 13 18 20 20 18 17 22 26 25 23 20 18 15 15 11 9 9 10 10 12 13 14 15 15 16 16 17 17 17 16 16 14 15 14 17
4 3 5 6 12 17 15 22 5 7 7 4 9 7 9 16 16 20 19 20 20 23 24 23 19 16 14 14 13 12 11 13 16 17 17 17 16 17 18 20 21 20 18 15 17 16 13 14 16
8 7 7 4 5 9 7 7 7 12 4 4 5 10 3 12 15 14 18 19 22 25 24 21 18 15 13 12 12 13 16 18 19 19 20 20 20 21 21 21 20 19 18 18 18 17 15 11 11
14 7 10 20 20 12 14 5 9 5 9 12 7 6 4 10 18 21 19 21 23 25 23 22 19 15 10 11 14 17 18 17 18 21 21 21 22 22 22 21 20 20 19 17 17 17 16 14 13
9 14 10 6 9 7 7 4 3 1 3 9 1 2 1 14 16 15 17 19 22 21 22 22 18 15 10 14 16 16 16 18 19 19 20 21 22 23 23 21 20 19 20 18 16 16 14 13 13
12 15 7 3 2 4 3 9 5 7 7 6 4 3 5 14 12 13 14 17 18 19 21 22 19 16 16 16 14 13 14 14 15 16 18 20 22 23 22 20 19 19 19 18 16 15 13 13 12
6 4 3 2 3 3 4 3 4 5 5 4 1 6 5 9 9 13 12 13 15 17 21 22 18 14 13 13 11 11 10 10 12 14 16 19 21 21 20 20 20 19 18 19 18 18 16 15 15
4 4 2 3 3 3 4 3 5 4 3 3 2 2 8 5 10 9 9 9 13 15 18 21 19 14 14 14 14 12 10 11 12 13 15 18 18 17 18 17 18 19 18 17 18 16 17 15 18
8 5 2 2 4 7 4 2 7 4 3 4 3 2 6 4 5 9 8 8 9 12 14 15 15 12 11 13 14 14 15 14 12 14 16 19 20 20 21 20 20 20 20 19 17 17 15 13 19
7 6 6 2 3 6 2 4 5 1 4 6 4 4 5 5 6 8 6 5 5 7 9 13 16 15 9 8 8 11 12 12 13 14 14 17 19 20 21 22 21 21 20 20 17 17 17 14 19
6 11 4 4 3 5 2 3 2 4 4 6 5 6 5 4 5 8 8 5 3 3 7 9 14 15 12 10 8 8 8 11 11 11 12 15 17 18 18 19 20 19 20 17 18 17 17 10 14
2 7 6 7 5 7 4 3 2 1 3 3 3 3 6 8 8 8 11 8 5 2 3 6 11 12 11 9 9 9 8 8 10 12 13 15 15 17 19 17 17 17 17 17 16 16 15 13 13
2 7 8 14 3 2 1 3 4 3 5 5 8 7 7 8 7 10 14 11 7 3 2 2 7 10 10 9 9 10 10 8 9 10 12 13 14 16 15 15 15 16 16 16 17 16 15 14 13
1 10 8 5 6 5 1 2 5 2 6 8 8 9 9 9 10 9 15 13 9 5 5 3 5 8 7 6 7 8 7 7 8 8 10 13 13 14 14 15 15 15 16 16 16 17 16 14 12
9 9 9 5 3 2 3 4 4 5 7 5 6 8 11 8 8 13 14 13 12 9 7 3 2 5 5 3 5 6 7 7 9 8 9 12 13 13 13 15 13 15 17 16 16 15 16 15 13
6 6 3 2 3 4 4 1 7 6 8 8 12 8 8 8 8 8 14 15 15 12 8 6 2 2 4 1 4 5 5 6 8 8 9 12 13 13 14 15 14 15 16 15 15 15 15 16 14
6 6 5 3 3 3 1 4 5 5 6 5 6 7 7 10 9 8 14 16 17 14 9 8 5 1 2 1 4 5 6 5 6 7 9 11 11 10 12 13 11 13 15 15 15 15 16 16 14
4 2 4 7 3 2 2 6 5 3 1 1 6 7 9 7 4 7 12 15 18 15 12 9 8 5 1 1 3 5 5 4 5 6 6 8 9 9 11 11 12 12 14 16 16 16 17 17 14
3 6 3 4 1 2 4 5 5 6 8 6 7 9 8 8 5 6 12 16 19 14 12 10 10 7 4 2 3 4 5 4 4 4 5 6 8 9 10 10 11 12 15 18 17 14 15 18 17
1 1 7 5 4 4 1 6 7 10 12 12 10 9 11 9 8 7 13 14 18 15 12 12 12 10 7 5 3 4 4 3 3 5 5 6 8 9 9 9 10 11 14 16 18 16 14 15 14
1 3 5 5 4 1 3 6 1 6 7 9 9 10 7 7 7 11 16 16 15 15 12 11 13 12 10 8 6 4 4 4 4 4 5 6 8 9 8 7 8 9 12 14 16 17 15 14 13
Wind_Direction
155 151 147 85 52 61 352 324 260 142 46 329 85 115 112 46 103 165 298 145 145 169 170 163 157 159 138 54 38 17 4 356 351 338 327 318 311 309 299 283 275 283 290 289 293 319 1 3 5
152 149 107 80 75 50 316 320 45 2 127 124 77 56 52 53 37 49 71 176 157 157 165 157 163 168 354 352 345 336 333 334 333 332 328 322 317 311 304 296 289 284 282 285 294 294 296 322 337
158 115 69 77 99 127 198 311 50 52 299 10 78 60 45 338 359 336 340 162 154 163 154 157 197 240 270 295 299 306 322 332 335 335 330 324 322 317 310 304 299 296 293 292 291 293 298 308 320
158 116 28 74 101 245 299 297 55 358 25 35 44 57 82 44 340 356 128 137 143 133 119 147 268 269 282 296 308 320 335 339 338 337 337 334 325 321 312 309 306 302 298 296 294 293 291 293 302
133 51 54 57 20 5 80 21 350 14 55 16 34 64 57 11 43 79 101 114 96 79 42 351 317 291 284 295 317 328 337 345 343 343 337 329 326 327 324 317 307 302 299 296 293 291 290 291 290
50 106 63 60 357 339 44 56 3 57 79 42 42 68 56 6 42 64 74 88 66 48 30 5 325 291 285 297 315 327 333 342 344 347 346 337 333 331 328 321 315 307 301 298 292 285 282 282 286
116 87 156 141 94 6 56 50 57 7 50 30 50 68 357 30 38 68 85 91 53 45 42 38 34 17 304 312 333 329 333 338 345 344 341 338 338 334 330 329 322 320 311 304 296 279 279 275 271
103 83 104 103 130 35 9 69 19 40 40 336 0 44 34 24 61 84 92 83 53 54 47 38 38 40 46 32 4 350 343 342 335 332 338 344 340 337 328 329 328 321 313 303 288 283 275 278 266
119 66 139 132 129 162 15 79 42 53 58 41 36 32 86 57 101 87 75 63 54 50 46 40 38 38 34 25 11 356 350 330 327 333 343 352 354 354 2 358 349 343 335 330 314 285 272 275 263
85 93 126 176 148 92 65 60 69 67 66 51 75 45 50 78 69 64 53 58 50 47 44 42 43 40 30 30 18 5 356 360 8 19 25 26 32 26 15 8 4 357 347 340 339 315 284 283 262
31 73 129 6 96 106 92 62 60 115 60 63 29 26 50 73 70 73 69 62 57 52 46 41 41 41 41 39 38 42 46 47 51 58 54 48 39 27 13 6 3 355 348 341 337 335 318 296 283
91 48 108 196 127 97 96 142 66 87 107 114 84 340 79 80 80 87 73 65 56 49 41 37 35 38 45 53 56 66 68 65 59 53 44 35 29 25 18 9 359 354 352 347 349 344 336 325 307
91 96 67 108 100 88 117 79 88 99 142 135 140 318 33 96 80 74 72 64 57 51 43 38 33 29 39 63 74 75 71 68 60 54 49 38 33 27 19 16 12 7 3 357 353 355 352 352 344
113 99 105 97 86 61 94 44 129 324 160 104 155 21 143 82 83 84 74 69 64 63 52 42 39 38 59 77 76 68 67 65 60 51 42 33 27 20 14 12 10 8 7 4 360 0 1 360 0
95 100 109 50 105 141 38 37 39 120 100 52 280 103 98 88 96 89 84 77 73 65 53 41 43 57 82 76 71 66 61 54 51 44 35 25 19 15 12 13 11 7 4 1 358 349 351 350 351
88 65 91 344 170 34 96 265 186 191 114 335 11 158 118 84 117 102 93 84 74 61 50 42 43 65 69 66 67 60 52 48 52 46 32 23 15 10 11 10 9 4 359 356 358 358 350 346 343
345 181 150 177 62 111 57 207 182 139 161 310 310 173 129 154 112 120 105 89 69 57 46 50 49 66 71 72 65 58 54 62 60 44 26 17 13 12 10 5 2 1 0 360 357 354 353 345 346
190 142 118 173 20 51 45 42 152 155 194 287 124 217 155 167 144 145 124 89 68 57 51 60 55 62 67 72 68 70 68 62 46 27 15 9 9 7 4 1 0 359 360 359 358 356 350 343 349
122 109 115 72 105 83 20 99 119 200 259 282 235 211 219 146 153 150 141 135 89 71 55 49 42 41 44 50 44 45 43 35 28 18 12 9 11 7 359 355 357 358 1 4 2 360 358 353 355
105 117 93 70 57 91 156 96 159 180 222 234 231 198 180 173 168 176 179 170 177 93 54 46 39 42 58 54 53 50 38 36 26 17 13 13 8 4 359 354 355 357 358 9 12 10 0 345 360
104 134 169 139 122 52 108 354 291 176 245 266 230 219 192 179 186 193 198 190 176 133 64 51 44 46 56 60 66 52 48 37 28 22 18 15 6 3 359 357 356 358 1 4 10 10 10 357 359
120 140 122 126 109 153 23 264 284 256 276 217 213 205 188 187 192 197 200 184 178 174 189 71 51 51 59 58 50 49 50 37 21 13 17 10 6 4 4 2 360 2 6 8 8 7 6 5 4
64 102 99 95 93 108 251 68 261 120 267 249 234 207 202 197 191 196 200 188 178 193 199 149 64 51 58 57 46 47 47 35 20 17 16 12 8 8 9 6 4 4 4 6 6 8 8 6 4
153 81 47 49 75 45 243 160 266 193 208 236 221 200 196 187 185 196 196 177 181 202 202 177 92 47 38 48 32 26 28 26 18 11 3 1 4 7 7 4 4 8 8 8 7 6 12 16 22
94 78 36 336 7 215 200 111 246 235 212 208 198 195 187 180 171 175 176 176 186 202 200 199 186 47 21 17 355 347 354 6 12 4 355 356 359 5 6 5 3 10 9 8 10 18 19 18 22
179 151 151 237 212 249 231 224 253 264 256 234 174 178 152 176 172 186 180 189 193 204 203 208 211 196 3 332 332 341 343 335 350 359 3 6 6 0 1 2 15 15 20 22 23 28 27 21 26
208 155 158 104 29 32 260 286 298 38 56 152 158 153 176 156 186 181 174 194 200 206 207 215 214 208 248 289 304 334 338 336 340 350 358 7 13 7 1 10 15 18 21 21 23 27 29 23 33
134 144 76 40 126 298 287 282 242 198 214 208 188 180 178 181 149 166 191 195 204 210 211 217 218 215 213 234 281 323 346 340 352 0 354 354 358 359 8 19 24 29 35 31 26 30 29 25 39
108 40 49 105 123 159 284 267 221 208 191 196 202 190 185 179 172 175 185 199 204 209 214 222 220 221 223 232 256 303 336 333 329 355 358 357 356 360 9 25 29 43 34 31 34 37 35 36 26
111 162 134 117 208 145 153 275 96 264 207 176 195 193 186 173 169 175 187 192 192 206 216 225 227 229 230 236 246 266 301 321 310 331 344 355 359 6 14 27 40 41 37 35 34 35 32 26 19